Location: Emling
(48.2833°N, 14.0667°E)
Time: 15:40:58
(UTC+00:00)

Daily predictions for brighter satellites

Satellite Brightness Start Highest point End
(mag) Time Altitude Azimuth Time Altitude Azimuth Time Altitude Azimuth
Cosmos 1634 Rocket 4.3 15:36:05 10° NNW 15:42:15 74° W 15:48:24 10° S
Cosmos 1346 Rocket 3.1 15:40:45 10° NNW 15:44:43 74° W 15:48:43 10° S
Iridium 82 4.5 15:41:47 10° S 15:45:17 79° E 15:48:54 10° N
SL-16 R/B 4.0 15:44:40 10° ESE 15:46:07 11° E 15:47:34 10° E
BREEZE-M R/B 3.4 15:40:40 10° W 15:48:04 81° N 15:51:41 10° ENE
ALOS 3.0 15:46:14 10° S 15:50:50 60° W 15:55:29 10° NNW
Cosmos 2251 Rocket 4.1 15:46:15 10° S 15:51:08 39° ESE 15:56:00 10° NE
Cosmos 1315 Rocket 3.0 15:48:32 10° SSW 15:52:32 79° WNW 15:56:37 10° N
ISS -3.2 15:50:04 10° WNW 15:53:22 61° SSW 15:56:42 10° SE
Cosmos 2333 Rocket 2.3 15:48:06 10° SSW 15:53:50 81° ESE 15:59:38 10° NNE
Cosmos 304 Rocket 4.2 15:49:07 10° NNW 15:53:55 69° WSW 15:58:42 10° SSE
COSMO-SKYMED 1 4.4 15:53:06 10° ENE 15:54:53 12° E 15:56:39 10° ESE
Nadezhda 4 Rocket 4.5 15:49:35 10° SSE 15:55:26 41° E 16:01:17 10° NNE
Cosmos 2237 Rocket 2.9 15:50:53 10° S 15:55:57 35° ESE 16:01:03 10° NE
Radarsat Rocket 4.2 15:52:46 10° SSE 15:58:55 79° WSW 16:04:47 10° NNW
AQUARIUS 4.4 15:55:21 10° SE 15:59:38 46° ENE 16:03:57 10° N
Cosmos 2322 Rocket 4.0 15:55:29 10° W 16:00:01 24° NW 16:04:33 10° N
Meteor 1-10 Rocket 4.2 15:56:02 10° S 16:01:32 70° E 16:07:07 10° NNE
YAOGAN 1 4.2 16:01:38 10° E 16:04:01 15° ENE 16:06:23 10° NNE
Cosmos 292 Rocket 4.3 15:59:45 10° N 16:04:16 36° ENE 16:08:44 10° SE
Envisat 3.6 15:59:49 10° SE 16:04:21 34° ENE 16:08:53 10° N
Cosmos 1812 3.1 16:00:54 10° SSE 16:04:35 44° E 16:08:17 10° NNE
CORIOLIS 4.3 15:59:21 10° SE 16:04:37 52° ENE 16:09:55 10° N
Helios 1A Rocket 3.8 16:01:23 10° S 16:05:24 54° W 16:09:27 10° NNW
COSMOS 2455 4.4 16:02:03 10° W 16:07:02 26° NW 16:12:02 10° NNE
COBE Rocket 4.2 16:03:17 10° NNE 16:07:43 42° E 16:12:09 10° SSE
SL-16 R/B 4.2 16:04:20 10° W 16:08:27 20° NW 16:12:35 10° N
Cosmos 2219 Rocket 2.3 16:02:52 10° SSW 16:08:29 82° WNW 16:14:11 10° NNE
ATLAS 3B R/B 4.3 16:04:28 10° NW 16:10:36 38° WSW 16:16:50 10° S
YAOGAN 6 3.9 16:08:17 10° ESE 16:10:50 19° ENE 16:13:25 10° NNE
IRS-1C Rocket 4.0 16:06:33 10° SSE 16:11:49 76° ENE 16:17:06 10° NNW
Cosmos 1733 Rocket 3.0 16:09:14 10° N 16:13:38 83° E 16:18:02 10° S
USA 267 3.5 16:07:11 10° SE 16:13:44 78° SW 16:20:19 10° NW
Cosmos 1992 Rocket 3.9 16:09:46 10° NNW 16:15:01 74° ENE 16:20:14 10° SSE
Meteor 1-11 Rocket 3.8 16:09:30 10° N 16:15:32 80° ENE 16:21:29 10° SSE
Exosat Rocket 3.6 16:10:27 10° S 16:15:38 60° ESE 16:20:37 10° NNE
CZ-4B R/B 3.6 16:12:53 10° N 16:15:50 25° WNW 16:18:45 10° SW
Cosmos 1500 3.0 16:13:46 10° N 16:17:33 81° E 16:21:18 10° SSE
Cosmos 1943 Rocket 3.6 16:15:22 10° N 16:19:17 19° NE 16:21:33 15° ENE
NOSS 3-4 (A) 4.1 16:13:34 10° WSW 16:19:29 52° NW 16:25:51 10° NE
NOSS 3-4 (C) 4.1 16:13:40 10° WSW 16:19:35 52° NW 16:25:57 10° NE
Meteor 1-27 Rocket 3.8 16:14:02 10° S 16:19:41 62° E 16:25:29 10° NNE
Radarsat 4.5 16:18:01 10° SSE 16:23:12 75° ENE 16:28:25 10° NNW
BREEZE-M DEB (TANK) 2.5 16:18:40 10° WNW 16:25:06 73° SSW 16:27:31 12° ESE
Cosmos 1867 4.4 16:21:25 10° NNW 16:26:17 31° NE 16:29:57 16° E
Cosmos 1980 3.7 16:21:18 10° SSW 16:26:50 62° ESE 16:32:12 11° NNE
ATLAS 5 CENTAUR R/B 1.6 16:26:55 10° SSW 16:29:04 30° SE 16:29:35 26° E
CSL-04 Rocket 4.3 16:26:45 10° ESE 16:31:16 30° ENE 16:35:49 10° N
Cosmos 2297 4.0 16:26:58 10° NNW 16:32:28 45° NE 16:37:54 10° SE
RESURS DK-1 3.1 16:29:13 10° SW 16:33:15 52° WNW 16:37:12 11° NNE
H-2A R/B 2.8 16:32:09 10° S 16:35:50 77° WSW 16:39:32 10° NNW
Cosmos 921 Rocket 3.5 16:31:56 10° N 16:35:53 35° ENE 16:39:52 10° SE
NOSS 0 Rocket 3.9 16:30:01 10° SSW 16:36:14 83° ESE 16:42:16 11° NNE
Cosmos 1441 Rocket 3.6 16:32:56 10° N 16:36:31 37° ENE 16:40:02 10° SE
SKYMED 2 4.2 16:41:07 20° NE 16:43:29 35° E 16:47:27 10° SSE
Cosmos 1782 Rocket 3.9 16:40:20 10° N 16:44:29 40° ENE 16:48:34 10° SE
Sich 1 Rocket 4.2 16:41:45 10° N 16:45:46 33° ENE 16:49:44 10° SE
COSMOS 2428 3.6 16:41:14 10° SW 16:46:42 47° NW 16:52:13 10° NNE
Ariane Rocket 4.5 16:49:10 18° NE 16:49:10 18° NE 16:51:24 10° NNE
Cosmos 1263 4.0 16:47:09 10° S 16:50:08 66° E 16:51:23 31° NNE
Cosmos 1536 3.2 16:47:27 10° NNW 16:51:29 67° W 16:55:26 10° S
FALCON 9 DEB 3.9 16:49:00 10° SSW 16:52:16 38° SE 16:53:03 33° ESE
Cosmos 1862 Rocket 4.2 16:49:38 10° SSW 16:53:55 58° WNW 16:58:17 10° N
Cosmos 2195 Rocket 4.5 16:48:16 10° S 16:54:21 60° E 17:00:33 10° NNE
Genesis I 3.0 16:52:02 10° NW 16:55:57 72° NE 16:58:25 21° SE
Cosmos 1703 Rocket 3.6 16:52:35 10° S 16:56:58 58° E 17:00:17 17° NNE
ATLAS 2AS CENTAUR R/B 4.0 16:50:33 10° W 16:57:55 38° NNW 17:03:59 15° NNE
SeaSat 1 4.0 17:02:16 19° NNE 17:02:16 19° NNE 17:04:53 10° N
Cosmos 1666 2.7 16:58:11 10° NNW 17:01:56 75° W 17:05:39 10° S
Cosmos 1092 Rocket 3.9 16:56:41 10° S 17:02:59 81° E 17:09:17 10° N
STARLINK-67 4.1 17:01:13 10° WNW 17:03:17 27° NNW 17:03:17 27° NNW
Lacrosse 5 rocket 1.9 17:00:32 10° WSW 17:04:41 50° NNW 17:06:10 33° NNE
Cosmos 2242 Rocket 3.9 17:01:18 10° SSW 17:05:50 70° W 17:10:26 10° N
Cosmos 1190 Rocket 4.5 17:01:06 10° S 17:05:52 38° ESE 17:06:48 35° ENE
NOAA 11 4.4 17:04:51 10° SE 17:10:03 47° ENE 17:15:17 10° N
Aureole 1 Rocket 2.0 17:08:21 10° SSW 17:11:18 86° ESE 17:11:21 85° ENE
CZ-4 R/B 1.1 17:07:42 10° SSE 17:11:35 71° ENE 17:15:26 10° N
Cosmos 2278 Rocket 3.9 17:07:29 10° NW 17:12:32 34° WSW 17:17:34 10° S
SL-4 R/B 2.2 17:08:47 10° W 17:12:32 52° N 17:13:11 46° NNE
FengYun 1-2 T 4.2 17:08:57 10° SSE 17:14:27 88° WSW 17:20:00 10° NNW
Okean 1 3.6 17:10:38 10° S 17:13:59 46° ESE 17:13:59 46° ESE
STARLINK-52 3.6 17:12:57 10° SW 17:16:09 47° SSE 17:16:09 47° SSE
Okean-O 3.5 17:12:13 10° S 17:16:32 51° W 17:20:52 10° NNW
Shenzhou-11 Module 4.1 17:15:06 10° WSW 17:17:05 18° SSW 17:17:18 18° S
STARLINK-46 4.4 17:16:04 10° WNW 17:17:43 26° NW 17:17:43 26° NW
USA 215 3.6 17:17:57 27° NE 17:21:27 55° NNW 17:27:46 10° W
STARLINK-29 3.6 17:21:01 10° SW 17:24:05 55° S 17:24:05 55° S
Cosmos 2344 4.5 17:16:48 10° NW 17:25:28 49° NNE 17:30:41 31° E
Cosmos 2369 Rocket 2.7 17:20:42 10° NNW 17:25:28 37° NE 17:25:28 37° NE
Cosmos 1743 2.6 17:23:44 10° N 17:27:37 89° ESE 17:31:30 10° S
USA 116 4.3 17:26:03 33° NNE 17:28:27 66° ESE 17:33:31 10° S
SL-16 R/B 2.1 17:23:30 10° SSW 17:29:08 69° ESE 17:30:56 44° NE
ISS -0.6 17:28:09 10° WSW 17:29:34 12° SW 17:31:00 10° SSW
COSMO-SKYMED 1 2.6 17:29:39 33° N 17:31:36 79° WNW 17:35:56 10° SSW
S3M 3.9 17:27:38 10° N 17:33:48 58° ENE 17:39:51 10° SSE
Cosmos 614 Rocket 3.8 17:28:49 10° SSW 17:33:54 77° ESE 17:34:59 55° NE
Cosmos 1174 3.9 17:29:34 10° SSW 17:34:31 73° SE 17:34:31 73° SE
Meteor 2-13 Rocket 4.5 17:32:04 10° SSE 17:37:53 52° E 17:38:03 52° E
Cosmos 2333 Rocket 4.1 17:34:15 10° W 17:38:49 24° NW 17:43:07 11° N
YAOGAN 1 2.6 17:35:13 10° S 17:39:33 76° WSW 17:43:54 10° NNW
Cosmos 2237 Rocket 3.1 17:34:27 10° SW 17:39:54 45° NW 17:43:32 20° N
STARLINK-60 4.2 17:36:34 10° WSW 17:38:58 43° WSW 17:38:58 43° WSW
Meteor 1-19 Rocket 4.0 17:37:24 10° S 17:42:49 63° E 17:42:49 63° E
Envisat 4.5 17:38:38 10° SSW 17:43:19 37° W 17:48:03 10° NNW
YAOGAN 6 4.2 17:40:52 10° SSW 17:44:07 35° W 17:47:27 10° NNW
Cosmos 1428 Rocket 4.5 17:38:04 10° SSW 17:44:14 81° W 17:50:32 10° N
Okean 1-7 3.7 17:40:27 10° SSW 17:44:42 55° WNW 17:46:42 29° NNW
Cosmos 1553 Rocket 4.0 17:40:30 10° N 17:46:54 90° W 17:53:20 10° S
Cosmos 1140 Rocket 3.5 17:46:00 10° SSW 17:50:28 64° SSE 17:50:28 64° SSE
Cosmos 2219 Rocket 4.3 17:49:21 10° W 17:53:22 20° NW 17:57:01 11° N
Cosmos 407 Rocket 3.5 17:49:04 10° SSW 17:54:15 78° WNW 17:55:05 62° N
NOSS 3-1 (C) 4.0 17:51:50 10° NW 17:58:59 57° NE 17:59:48 55° ENE
IRS-1A Rocket 4.5 18:01:26 60° NNE 18:01:26 60° NNE 18:06:26 10° NNW
Cosmos 1943 Rocket 2.3 17:58:20 10° NNW 18:03:07 63° N 18:03:07 63° N
USA 229 DEB 3.8 18:00:34 10° NW 18:07:41 62° NE 18:07:49 62° NE
USA 229 3.8 18:00:40 10° NW 18:07:47 62° NE 18:07:53 62° NE
Cosmos 1867 3.8 18:04:52 10° NW 18:10:17 65° WSW 18:10:41 63° SSW
NOSS 3-1 (A) 4.2 18:05:58 10° NW 18:12:36 50° NNE 18:12:36 50° NNE
Cosmos 1655 Rocket 4.4 18:29:42 10° SSW 18:35:55 61° WNW 18:37:02 53° NW
Lacrosse 5 rocket 4.3 18:41:11 10° WNW 18:41:49 13° WNW 18:41:49 13° WNW
ATLAS 2AS CENTAUR R/B 4.3 18:44:47 10° NW 18:51:14 26° N 18:51:24 26° N
USA 215 4.3 19:05:18 37° NNW 19:05:18 37° NNW 19:09:50 10° WNW
Cosmos 2369 Rocket 4.1 19:04:45 10° NW 19:07:18 25° NW 19:07:18 25° NW
SL-16 R/B 4.1 19:09:04 10° WSW 19:12:51 25° WNW 19:12:51 25° WNW
